Location: ??????????
(42.1626°N, 44.1160°E)
Time: 12:14:28
(UTC+00:00)

OBJECT-B - Pass Details

Date: 03 March 2021
Orbit: 414 x 427 km, 97.0° (Epoch: 11 April)

Event Time Altitude Azimuth Distance (km) Brightness Sun altitude
Exits shadow 16:32:08 17° 19° (NNE) 1,171 2.9 -18.6°
Drops below altitude 10° 16:33:05 10° 9° (N) 1,513 3.6 -18.8°
Sets 16:35:13 0° 359° (N) 2,380 4.7 -19.1°
